EHI
0 0 0 0 0 0 0 0 0 0 0 0 0 0 0 0 0 0 0 0 0 0 0 0 0 0 0 0 0 0 0 0 0 0 0 0 0 0 0 0 0 0 0
0 0 0 0 0 0 0 0 0 0 0 0 0 0 0 0 0 0 0 0 0 0 0 0 0 0 0 0 0 0 0 0 0 0 0 0 0 0 0 0 0 0 0
0 0 0 0 0 0 0 0 0 0 0 0 0 0 0 0 0 0 0 0 0 0 0 0 0 0 0 0 0 0 0 0 0 0 0 0 0 0 0 0 0 0 0
0 0 0 0 0 0 0 0 0 0 0 0 0 0 0 0 0 0 0 0 0 0 0 0 0 0 0 0 0 0 0 0 0 0 0 0 0 0 0 0 0 0 0
0 0 0 0 0 0 0 0 0 0 0 0 0 0 0 0 0 0 0 0 0 0 0 0 0 0 0 0 0 0 0 0 0 0 0 0 0 0 0 0 0 0 0
0 0 0 0 0 0 0 0 0 0 0 0 0 0 0 0 0 0 0 0 0 0 0 0 0 0 0 0 0 0 0 0 0 0 0 0 0 0 0 0 0 0 0
0 0 0 0 0 0 0 0 0 0 0 0 0 0 0 0 0 0 0 0 0 0 0 0 0 0 0 0 0 0 0 0 0 0 0 0 0 0 0 0 0 0 0
0 0 0 0 0 0 0 0 0 0 0 0 0 0 0 0 0 0 0 0 0 0 0 0 0 0 0 0 0 0 0 0 0 0 0 0 0 0 0 0 0 0 0
0 0 0 0 0 0 0 0 0 0 0 0 0 0 0 0 0 0 0 0 0 0 0 0 0 0 0 0 0 0 0 0 0 0 0 0 0 0 0 0 0 0 0
0 0 0 0 0 0 0 0 0 0 0 0 0 0 0 0 0 0 0 0 0 0 0 0 0 0 0 0 0 0 0 0 0 0 0 0 0 0 0 0 0 0 0
0 0 0 0 0 0 0 0 0 0 0 0 0 0 0 0 0 0 0 0 0 0 0 0 0 0 0 0 0 0 0 0 0 0 0 0 0 0 0 0 0 0 0
0 0 0 0 0 0 0 0 0 0 0 0 0 0 0 0 0 0 0 0 0 0 0 0 0 0 0 0 0 0 0 0 0 0 0 0 0 0 0 0 0 0 0
0 0 0 0 0 0 0 0 0 0 0 0 0 0 0 0 0 0 0 0 0 0 0 0 0 0 0 0 0 0 0 0 0 0 0 0 0 0 0 0 0 0 0
0 0 0 0 0 0 0 0 0 0 0 0 0 0 0 0 0 0 0 0 0 0 0 0 0 0 0 0 0 0 0 0 0 0 0 0 0 0 0 0 0 0 0
0 0 0 0 0 0 0 0 0 0 0 0 0 0 0 0 0 0 0 0 0 0 0 0 0 0 0 0 0 0 0 0 0 0 0 0 0 0 0 0 0 0 0
0 0 0 0 0 0 0 0 0 0 0 0 0 0 0 0 0 0 0 0 0 0 0 0 0 0 0 0 0 0 0 0 0 0 0 0 0 0 0 0 0 0 0
0 0 0 0 0 0 0 0 0 0 0 0 0 0 0 0 0 0 0 0 0 0 0 0 0 0 0 0 0 0 0 0 0 0 0 0 0 0 0 0 0 0 0
0 0 0 0 0 0 0 0 0 0 0 0 0 0 0 0 0 0 0 0 0 0 0 0 0 0 0 0 0 0 0 0 0 0 0 0 0 0 0 0 0 0 0
0 0 0 0 0 0 0 0 0 0 0 0 0 0 0 0 0 0 0 0 0 0 0 0 0 0 0 0 0 0 0 0 0 0 0 0 0 0 0 0 0 0 0
0 0 0 0 0 0 0 0 0 0 0 0 0 0 0 0 0 0 0 0 0 0 0 0 0 0 0 0 0 0 0 0 0 0 0 0 0 0 0 0 0 0 0
0 0 0 0 0 0 0 0 0 0 0 0 0 0 0 0 0 0 0 0 0 0 0 0 0 0 0 0 0 0 0 0 0 0 0 0 0 0 0 0 0 0 0
0 0 0 0 0 0 0 0 0 0 0 0 0 0 0 0 0 0 0 0 0 0 0 0 0 0 0 0 0 0 0 0 0 0 0 0 0 0 0 0 0 0 0
0 0 0 0 0 0 0 0 0 0 0 0 0 0 0 0 0 0 0 0 0 0 0 0 0 0 0 0 0 0 0 0 0 0 0 0 0 0 0 0 0 0 0
0 0 0 0 0 0 0 0 0 0 0 0 0 0 0 0 0 0 0 0 0 0 0 0 0 0 0 0 0 0 0 0 0 0 0 0 0 0 0 0 0 0 0
0 0 0 0 0 0 0 0 0 0 0 0 0 0 0 0 0 0 0 0 0 0 0 0 0 0 0 0 0 0 0 0 0 0 0 0 0 0 0 0 0 0 0
0 0 0 0 0 0 0 0 0 0 0 0 0 0 0 0 0 0 0 0 0 0 0 0 0 0 0 0 0 0 0 0 0 0 0 0 0 0 0 0 0 0 0
Wind_Speed
5 5 4 4 4 3 3 3 3 4 4 5 4 5 5 4 3 2 5 12 15 15 15 15 15 15 15 15 14 14 14 15 15 15 13 11 9 9 8 8 8 8 8
5 5 5 4 4 4 3 3 4 4 4 4 5 5 4 2 2 2 4 8 15 16 16 16 15 15 15 14 14 14 14 14 15 15 15 13 11 10 10 9 9 9 9
7 7 5 5 4 4 4 3 4 3 4 4 4 4 3 1 2 3 4 4 6 12 14 15 15 15 14 14 14 13 14 14 15 15 15 15 13 12 12 11 11 11 11
10 7 6 5 5 4 3 3 3 3 4 5 4 3 2 2 2 3 4 4 4 4 7 12 14 14 14 14 14 13 14 14 15 15 16 16 14 13 13 13 13 13 13
10 8 6 6 6 4 4 4 4 4 5 6 5 3 2 3 3 2 3 4 4 4 5 7 9 10 12 13 14 14 14 15 16 16 17 17 16 15 15 15 15 14 15
10 9 7 7 6 5 4 4 5 5 5 6 5 2 0 2 3 1 0 0 2 4 5 7 7 7 9 12 13 14 15 16 17 18 18 19 18 17 17 17 16 16 17
10 9 7 7 5 5 5 5 4 5 5 6 5 2 1 2 3 2 2 3 2 4 6 8 7 7 7 12 12 13 16 18 19 19 19 20 19 19 19 19 20 19 19
9 8 9 7 6 6 6 5 4 3 4 5 5 4 3 2 2 2 3 3 4 5 7 9 9 9 9 7 9 14 15 18 20 21 21 21 21 21 21 22 23 22 23
8 9 10 8 7 6 5 5 4 4 3 3 4 4 4 3 5 4 4 5 6 6 8 8 10 10 9 7 8 10 15 18 20 22 22 22 22 22 23 24 25 26 26
9 10 10 9 7 6 6 5 4 3 3 2 2 2 3 3 5 5 4 5 7 8 9 8 10 10 9 8 9 13 15 19 22 23 24 25 25 25 26 27 27 28 29
9 10 9 8 7 6 6 5 4 3 2 2 2 2 3 3 5 5 8 8 7 7 7 9 9 8 8 9 9 10 16 21 24 25 25 26 27 28 28 29 29 30 30
8 10 9 8 7 6 6 5 4 3 1 1 2 3 3 4 5 6 8 10 10 8 10 8 7 7 8 10 10 13 19 23 24 24 25 26 28 29 30 30 31 32 32
8 10 8 7 6 6 6 5 3 2 2 3 4 3 4 5 6 7 9 11 12 11 9 6 6 7 8 8 9 18 21 24 24 25 27 28 29 29 30 30 32 32 33
9 10 9 7 7 7 5 4 2 2 3 4 4 5 5 5 5 7 8 10 12 10 9 11 8 7 6 9 13 20 17 22 24 26 29 30 30 30 30 31 32 32 32
10 11 9 8 7 6 5 3 2 2 3 4 5 6 5 5 6 7 7 8 10 13 13 10 6 7 9 11 14 15 16 22 26 28 30 30 31 31 32 32 32 32 32
11 11 9 8 6 5 4 3 2 2 4 4 4 6 7 6 7 7 8 8 9 12 14 9 11 12 13 12 17 17 17 24 26 27 28 29 30 31 32 33 34 34 34
11 10 8 7 6 4 3 2 3 3 5 5 5 6 8 9 8 7 8 8 9 10 15 14 12 13 17 17 15 15 15 16 16 25 28 29 31 32 32 32 33 33 33
10 9 8 6 5 3 2 3 3 4 5 6 6 7 8 7 9 8 8 9 9 11 13 18 14 14 17 17 17 17 15 15 16 22 27 29 30 31 31 32 32 33 33
9 8 6 5 4 2 2 3 5 6 6 7 7 8 9 9 10 8 10 10 10 10 12 15 16 14 13 13 17 17 17 14 15 17 23 25 27 30 31 32 33 33 33
8 7 5 4 2 0 2 4 5 7 8 8 8 9 9 9 10 11 10 12 12 13 14 14 14 14 13 16 16 14 14 13 13 14 18 20 24 28 29 30 31 31 32
7 6 4 3 0 2 3 5 7 8 8 9 9 9 10 11 14 13 12 13 14 13 13 13 14 14 15 14 14 13 14 15 15 14 15 14 15 15 17 22 26 28 29
6 5 3 1 1 2 5 8 9 9 9 9 10 10 10 11 13 17 19 20 20 17 16 14 14 16 18 17 14 14 15 16 16 12 14 16 15 16 15 14 22 29 31
5 4 2 1 3 3 6 9 10 10 9 9 10 10 9 9 14 13 16 20 19 21 20 18 18 18 18 17 17 18 17 17 17 15 16 18 15 16 15 16 27 30 31
4 2 1 2 3 4 7 10 12 10 9 9 10 11 12 12 12 15 16 16 15 15 17 14 15 17 17 17 17 17 18 17 17 14 14 17 16 16 16 15 25 29 30
3 1 1 3 4 5 7 11 13 9 8 10 10 11 12 13 17 21 18 16 16 15 15 19 22 23 26 26 21 13 13 13 15 14 12 13 14 15 16 16 16 22 23
1 0 2 3 5 6 8 11 13 8 9 9 10 11 14 15 19 22 17 16 16 15 15 16 17 17 17 17 19 13 11 12 14 12 9 9 12 12 12 10 11 13 16
Wind_Direction
154 130 106 95 88 81 77 46 28 21 2 357 357 340 339 340 354 57 82 56 52 50 47 40 34 26 19 15 12 11 9 7 4 0 356 353 353 353 353 355 350 342 327
136 118 108 98 89 77 61 48 37 12 0 356 352 344 336 345 34 90 97 82 61 52 48 40 30 21 11 4 1 359 358 357 354 350 346 342 341 341 339 337 337 338 337
129 119 115 109 103 95 80 55 43 9 2 351 353 354 341 353 120 100 85 78 78 63 48 35 24 14 4 354 348 346 345 344 342 338 333 327 323 322 321 319 319 318 317
129 123 120 113 113 103 87 65 25 11 8 356 349 352 311 180 134 99 88 70 55 44 47 30 15 6 357 347 338 333 331 330 327 324 321 315 309 304 303 302 303 304 304
133 129 123 122 120 106 88 75 45 17 8 356 342 336 297 185 139 129 90 65 52 30 13 13 360 355 348 340 332 325 320 318 317 313 309 303 298 295 294 292 291 293 294
133 128 125 128 124 113 101 88 72 42 12 344 328 337 346 202 203 196 321 46 19 5 355 352 341 336 330 326 322 318 314 312 310 308 303 297 291 287 287 284 282 283 284
132 132 129 126 119 106 98 82 71 50 26 350 331 326 200 203 234 216 296 290 315 326 328 339 334 327 321 321 317 318 315 312 309 305 300 295 289 284 283 283 280 278 278
135 134 131 125 120 115 104 87 66 50 41 15 351 330 321 218 180 260 296 285 303 310 323 330 325 321 319 317 318 317 319 318 314 308 302 295 289 286 284 283 281 279 278
135 132 127 125 123 117 106 90 69 48 36 37 19 353 329 320 318 284 295 299 306 315 319 321 316 316 313 310 310 316 320 318 313 307 302 297 293 290 288 285 284 282 281
133 128 127 126 123 117 114 101 81 65 26 15 25 360 317 308 294 301 280 281 297 302 303 308 311 306 305 311 308 309 319 321 315 311 307 302 298 294 291 289 287 285 283
132 132 131 127 124 118 114 114 109 88 48 358 335 315 291 276 266 283 296 305 300 293 298 301 296 291 303 309 305 311 322 318 313 308 305 302 299 296 293 292 290 288 287
137 134 131 127 128 126 127 130 129 125 126 263 274 280 294 293 296 289 291 301 304 306 302 294 287 290 308 307 302 313 315 311 307 305 304 301 298 297 295 294 293 291 289
145 141 137 137 133 133 137 143 146 161 222 259 274 287 283 279 286 285 287 297 300 300 293 281 277 290 301 299 307 314 308 303 302 303 301 299 298 297 296 295 293 290 288
140 139 138 140 141 144 148 151 162 202 244 262 277 284 285 282 283 283 289 298 300 294 289 292 304 298 296 300 299 302 295 295 297 298 297 297 297 296 294 292 290 287 286
133 137 141 146 148 151 152 164 206 226 254 275 289 290 288 288 286 285 284 282 288 296 299 302 295 299 301 298 296 293 292 293 295 293 292 292 293 293 292 290 289 288 287
133 139 146 150 153 156 165 190 231 254 279 294 302 300 301 293 291 285 280 280 278 284 288 294 300 301 304 295 291 291 291 293 291 290 291 291 291 290 290 290 288 287 285
137 142 147 152 158 165 180 219 257 280 295 303 301 302 300 300 294 291 289 285 283 285 287 294 298 302 299 296 297 297 296 294 291 291 292 292 291 290 289 288 287 286 284
134 138 144 151 154 166 211 264 287 294 298 299 300 299 297 298 296 294 292 291 289 288 290 296 300 299 298 300 300 299 297 292 291 293 293 293 292 290 289 288 286 285 283
131 138 146 148 149 166 260 291 297 296 292 290 293 297 301 301 299 299 297 294 292 291 290 291 294 296 298 300 302 298 296 295 295 295 294 292 289 288 287 287 286 286 285
134 139 138 132 134 245 294 299 298 295 293 288 286 288 294 295 299 301 298 296 296 296 293 291 292 296 300 302 299 301 303 301 298 298 292 289 287 288 287 286 285 284 283
130 133 133 131 122 308 327 321 310 301 295 291 286 287 289 294 296 296 297 299 300 296 293 292 295 300 300 301 303 306 303 302 298 297 293 292 293 289 288 285 282 280 279
131 131 127 102 334 343 335 319 317 305 297 293 295 296 297 293 293 297 298 298 295 292 293 295 297 297 299 302 306 304 302 301 300 302 299 296 294 289 287 284 284 284 283
134 136 118 349 329 351 332 325 319 306 299 298 297 297 297 297 303 300 298 296 294 291 289 292 293 293 298 302 302 299 298 297 295 299 299 293 294 291 290 288 289 288 287
133 123 43 344 328 339 333 323 320 307 300 294 294 296 299 303 304 304 302 300 297 294 290 291 289 290 291 292 293 296 297 293 288 287 288 291 296 295 296 293 291 288 286
126 97 340 334 326 329 334 326 328 312 301 301 301 300 302 301 304 307 307 303 300 299 300 296 290 287 289 293 294 292 290 290 293 296 295 288 294 301 296 289 287 288 289
105 353 323 328 325 327 333 332 328 313 310 309 305 303 302 304 308 311 311 308 306 307 306 301 296 295 294 292 290 283 285 288 292 296 293 296 299 307 302 289 293 297 295